Weather History for KTWF - April, 2013

Change the Weather History Date:

Friday, April 26, 2013

  Actual Average Record
Temperature  
Mean Temperature 58 °F -  
Max Temperature 73 °F 64 °F 81 °F (2001)
Min Temperature 42 °F 37 °F 24 °F (1985)
Degree Days  
Heating Degree Days 7 15  
Month to date heating degree days 467 454  
Since 1 July heating degree days 5415 5743  
Cooling Degree Days 0 0  
Month to date cooling degree days 0 0  
Year to date cooling degree days 0 0  
Growing Degree Days 8 (Base 50)    
Moisture  
Dew Point 25 °F    
Average Humidity 32    
Maximum Humidity 49    
Minimum Humidity 15    
Precipitation  
Precipitation 0.00 in 0.04 in 0.53 in (2012)
Month to date precipitation 0.94 0.96  
Year to date precipitation 2.50 3.79  
Sea Level Pressure  
Sea Level Pressure 30.09 in    
Wind  
Wind Speed 13 mph (SW)    
Max Wind Speed 20 mph    
Max Gust Speed 24 mph    
Visibility 10 miles    
Events      
T = Trace of Precipitation, MM = Missing Value Source: NWS Daily Summary

Daily Weather History Graph

Daily Weather History Graph

Search for Another Location

Airport or City:

Trip Planner

Search our weather history database for the weather conditions in past years. The results will help you decide how hot, cold, wet, or windy it might be!

Date:

Astronomy

Apr. 26, 2013 Rise Set
Actual Time 6:39 AM MDT 8:32 PM MDT
Civil Twilight 6:09 AM MDT 9:02 PM MDT
Nautical Twilight 5:32 AM MDT 9:39 PM MDT
Astronomical Twilight 4:52 AM MDT 10:20 PM MDT
Moon 10:01 PM MDT (4/26) 7:09 AM MDT (4/26)
Length of Visible Light 14h 53m
Length of Day
13h 53m
Full, 99% of the Moon is Illuminated
Apr 26
Full
May 2
Last Quarter
May 9
New
May 17
First Quarter
May 24
Full

Hourly Weather History & Observations

Time (MDT) Temp. Windchill Dew Point Humidity Pressure Visibility Wind Dir Wind Speed Gust Speed Precip Events Conditions
12:53 AM 48.0 °F - 21.0 °F 34% 29.97 in 10.0 mi SSW 16.1 mph - N/A   Clear
1:53 AM 46.9 °F - 21.9 °F 37% 29.99 in 10.0 mi SSW 13.8 mph - N/A   Clear
2:53 AM 46.9 °F - 23.0 °F 39% 30.00 in 10.0 mi SSW 15.0 mph - N/A   Clear
3:53 AM 46.9 °F - 23.0 °F 39% 30.01 in 10.0 mi SSW 15.0 mph - N/A   Clear
4:53 AM 48.9 °F - 23.0 °F 36% 30.03 in 10.0 mi SSW 13.8 mph - N/A   Clear
5:53 AM 45.0 °F 39.3 °F 24.1 °F 44% 30.06 in 10.0 mi SSW 11.5 mph - N/A   Clear
6:53 AM 43.0 °F 36.8 °F 25.0 °F 49% 30.10 in 10.0 mi South 11.5 mph - N/A   Clear
7:53 AM 51.1 °F - 26.1 °F 38% 30.11 in 10.0 mi SW 9.2 mph - N/A   Clear
8:53 AM 55.9 °F - 28.0 °F 34% 30.14 in 10.0 mi WSW 13.8 mph - N/A   Clear
9:53 AM 60.1 °F - 28.9 °F 31% 30.15 in 10.0 mi West 13.8 mph 19.6 mph N/A   Clear
10:53 AM 63.0 °F - 28.9 °F 28% 30.15 in 10.0 mi West 13.8 mph - N/A   Clear
11:53 AM 66.0 °F - 30.0 °F 26% 30.15 in 10.0 mi West 12.7 mph - N/A   Clear
12:53 PM 69.1 °F - 28.0 °F 22% 30.14 in 10.0 mi West 13.8 mph 20.7 mph N/A   Clear
1:53 PM 70.0 °F - 26.1 °F 19% 30.13 in 10.0 mi West 15.0 mph 20.7 mph N/A   Clear
2:53 PM 71.1 °F - 24.1 °F 17% 30.13 in 10.0 mi West 12.7 mph 19.6 mph N/A   Clear
3:53 PM 72.0 °F - 23.0 °F 16% 30.12 in 10.0 mi WSW 12.7 mph 21.9 mph N/A   Clear
4:53 PM 73.0 °F - 23.0 °F 15% 30.09 in 10.0 mi WNW 15.0 mph 20.7 mph N/A   Clear
5:53 PM 72.0 °F - 27.0 °F 19% 30.10 in 10.0 mi West 13.8 mph 20.7 mph N/A   Clear
6:53 PM 70.0 °F - 24.1 °F 18% 30.10 in 10.0 mi West 13.8 mph 19.6 mph N/A   Clear
7:53 PM 66.0 °F - 25.0 °F 21% 30.09 in 10.0 mi WSW 10.4 mph - N/A   Clear
8:53 PM 60.1 °F - 24.1 °F 25% 30.11 in 10.0 mi SW 10.4 mph - N/A   Clear
9:53 PM 55.0 °F - 23.0 °F 29% 30.12 in 10.0 mi SSW 11.5 mph - N/A   Clear
10:53 PM 53.1 °F - 23.0 °F 31% 30.13 in 10.0 mi SSW 12.7 mph - N/A   Clear
11:53 PM 54.0 °F - 24.1 °F 31% 30.12 in 10.0 mi SSW 13.8 mph - N/A   Clear